Back to catalog

THORAD AGENA D DEB

AliveLEO
NORAD 4708·DEBRIS·🇺🇸 United States

Launched Apr 8, 1970 from Vandenberg Space Force Base

Loading…

Next Passes (next 24 hours)

TLE

FreshSource: Space-Track

Epoch: Sep 14, 2026, 12:52 UTC

1 04708U 70025BW  26257.53670236  .00001190  00000-0  10004-2 0  9995
2 04708 100.0379 353.6420 0064369 239.0825 189.0089 13.89420510807633

Track THORAD AGENA D DEB in real time with AllMySat

Download on the App Store